Home   Weather   Funchal   Past weeks

Flag for Portugal Past Weather in Funchal, Madeira, Portugal — Yesterday and Last 2 Weeks

68 °F

Scattered clouds.

Feels Like: 68 °F
Forecast: 68 / 74 °F
Wind: 7 mph from North

Location: Aeroporto Da Madeira

Current Time: Oct 25, 2016 at 8:18:55 PM

Latest Report: Oct 25, 2016 at 7:30 PM

Visibility: N/A

Pressure: 29.77 "Hg

Humidity: 60%

Dew Point: 54 °F

Location of FunchalLocation

Past Weather in Funchal — Graph


Funchal Temperature Yesterday

Maximum temperature yesterday: 72 °F (at 3:30 PM)
Minimum temperature yesterday: 61 °F (at 12:30 AM)
Average temperature yesterday: 66 °F

High & Low Weather Summary for the Past Weeks

High79 °F (Oct 12, 5:00 PM)94% (Oct 16, 12:00 PM)30.18 "Hg (Oct 16, 12:00 PM)
Low61 °F (Oct 24, 12:30 AM)44% (Oct 12, 6:30 PM)29.53 "Hg (Oct 24, 8:00 AM)
Average70 °F70%29.93 "Hg
* Reported Oct 10 7:00 PM — Oct 25 7:00 PM, Funchal, Weather by CustomWeather, © 2016

Note: Actual official high and low records may vary slightly from our data, if they occured in-between our weather recording intervals... More about our weather records


Funchal Weather History for the Previous 24 Hours

Scroll right to see more
Time TempWeatherWind HumidityBarometerVisibility
7:00 PM
Tue, Oct 25
70 °FScattered clouds.8 mph57%29.77 "HgN/A
6:30 PM70 °FScattered clouds.8 mph60%29.77 "HgN/A
6:00 PM70 °FScattered clouds.8 mph60%29.77 "HgN/A
5:30 PM68 °FScattered clouds.9 mph64%29.77 "HgN/A
5:00 PM70 °FScattered clouds.14 mph64%29.77 "HgN/A
4:30 PM68 °FScattered clouds.10 mph69%29.74 "HgN/A
4:00 PM70 °FScattered clouds.10 mph64%29.74 "HgN/A
3:30 PM72 °FScattered clouds.9 mph57%29.77 "HgN/A
3:00 PM72 °FScattered clouds.13 mph61%29.74 "HgN/A
2:30 PM72 °FScattered clouds.13 mph57%29.77 "HgN/A
2:00 PM72 °FScattered clouds.14 mph61%29.77 "HgN/A
1:30 PM72 °FPassing clouds.14 mph53%29.77 "HgN/A
1:00 PM73 °FPassing clouds.12 mph53%29.77 "HgN/A
12:30 PM73 °FPassing clouds.9 mph53%29.77 "HgN/A
12:00 PM72 °FPassing clouds.8 mph53%29.74 "HgN/A
11:30 AM72 °FPassing clouds.9 mph57%29.74 "HgN/A
11:00 AM72 °FPassing clouds.13 mph53%29.74 "HgN/A
10:30 AM70 °FPassing clouds.9 mph60%29.74 "HgN/A
10:00 AM72 °FPassing clouds.8 mph53%29.74 "HgN/A
9:30 AM68 °FPassing clouds.9 mph64%29.74 "HgN/A
9:00 AM66 °FPassing clouds.9 mph64%29.71 "HgN/A
8:30 AM66 °FPassing clouds.7 mph64%29.71 "HgN/A
8:00 AM64 °FPassing clouds.2 mph73%29.71 "HgN/A
7:30 AM63 °FPassing clouds.5 mph73%29.68 "HgN/A
7:00 AM66 °FPassing clouds.No wind60%29.68 "HgN/A
6:30 AM64 °FPassing clouds.3 mph64%29.68 "HgN/A
6:00 AM64 °FPassing clouds.5 mph64%29.65 "HgN/A
5:30 AM63 °FPassing clouds.7 mph73%29.65 "HgN/A
5:00 AM64 °FPassing clouds.3 mph68%29.65 "HgN/A
4:30 AM64 °FPassing clouds.5 mph68%29.65 "HgN/A
4:00 AM63 °FPassing clouds.5 mph73%29.65 "HgN/A
3:30 AM64 °FPassing clouds.3 mph68%29.65 "HgN/A
3:00 AM64 °FPassing clouds.7 mph73%29.65 "HgN/A
2:30 AM64 °FPassing clouds.7 mph73%29.65 "HgN/A
2:00 AM66 °FPassing clouds.7 mph68%29.65 "HgN/A
1:30 AM64 °FPassing clouds.2 mph73%29.68 "HgN/A
1:00 AM64 °FPassing clouds.3 mph73%29.68 "HgN/A
12:30 AM64 °FPassing clouds.6 mph73%29.68 "HgN/A
12:00 AM64 °FPassing clouds.6 mph73%29.68 "HgN/A
11:30 PM
Mon, Oct 24
64 °FPassing clouds.2 mph73%29.65 "HgN/A
11:00 PM66 °FPassing clouds.5 mph68%29.65 "HgN/A
10:30 PM66 °FPassing clouds.7 mph68%29.65 "HgN/A
10:00 PM66 °FPassing clouds.5 mph73%29.65 "HgN/A
9:30 PM66 °FPassing clouds.6 mph68%29.62 "HgN/A
9:00 PM66 °FPassing clouds.3 mph73%29.62 "HgN/A
8:30 PM66 °FPassing clouds.6 mph73%29.62 "HgN/A
8:00 PM68 °FPassing clouds.7 mph69%29.59 "HgN/A
Weather by CustomWeather, © 2016

See weather overviewHow to use our weather pages